| time (UTC) | temp C | wind direction | speed KPH | gust KPH | rain 1hr cm | rain 24hr cm | rain mn cm | humidity % | barometer mb |
| 20260507110012 | 5 | 267 | 0.0 | 3.2 | 0.00 | 1.65 | 0.00 | 97 | 1007.1 |
| 20260507104518 | 4 | 29 | 0.0 | 3.2 | 0.00 | 1.65 | 0.00 | 97 | 1007.1 |
| 20260507103022 | 3 | 294 | 0.0 | 0.0 | 0.00 | 1.65 | 0.00 | 97 | 1007.0 |
| 20260507101520 | -17 | 0.0 | 0.0 | 0.00 | 1.65 | 0.00 | 1006.9 | ||
| 20260507100022 | -17 | 0.0 | 0.0 | 0.00 | 1.65 | 0.00 | 1006.9 | ||
| 20260507094523 | -17 | 0.0 | 0.0 | 0.00 | 1.65 | 0.00 | 1007.0 | ||
| 20260507093024 | -17 | 0.0 | 0.0 | 0.00 | 1.65 | 0.00 | 1007.1 | ||
| 20260507091534 | -17 | 0.0 | 0.0 | 0.00 | 1.65 | 0.00 | 1007.2 | ||
| 20260507090032 | -17 | 0.0 | 0.0 | 0.00 | 1.65 | 0.00 | 1007.3 | ||
| 20260507084538 | -17 | 0.0 | 0.0 | 0.00 | 1.65 | 0.00 | 1007.0 | ||
| 20260507083023 | -17 | 0.0 | 0.0 | 0.00 | 1.65 | 0.00 | 1007.0 | ||
| 20260507081525 | -17 | 0.0 | 0.0 | 0.00 | 1.65 | 0.00 | 1007.1 | ||
| 20260507080025 | -17 | 0.0 | 0.0 | 0.00 | 1.65 | 0.00 | 1006.9 | ||
| 20260507074524 | -17 | 0.0 | 0.0 | 0.00 | 1.65 | 0.00 | 1007.1 | ||
| 20260507073026 | -17 | 0.0 | 0.0 | 0.00 | 1.65 | 0.00 | 1007.0 | ||
| 20260507071527 | -17 | 0.0 | 0.0 | 0.00 | 1.65 | 0.00 | 1006.7 | ||
| 20260507070027 | -17 | 0.0 | 0.0 | 0.00 | 1.65 | 0.00 | 1006.6 | ||
| 20260507064525 | 6 | 260 | 0.0 | 1.6 | 0.00 | 1.65 | 0.00 | 95 | 1006.3 |
| 20260507063026 | 6 | 277 | 1.6 | 3.2 | 0.00 | 1.65 | 0.00 | 95 | 1006.8 |
| 20260507061526 | 6 | 10 | 0.0 | 3.2 | 0.00 | 1.65 | 0.00 | 95 | 1006.7 |
| 20260507060021 | 6 | 352 | 0.0 | 3.2 | 0.00 | 1.65 | 0.00 | 94 | 1006.9 |
| 20260507054503 | 6 | 321 | 0.0 | 3.2 | 0.00 | 1.65 | 0.00 | 94 | 1007.1 |
| 20260507053004 | 6 | 5 | 0.0 | 3.2 | 0.00 | 1.65 | 0.00 | 94 | 1007.3 |
| 20260507051508 | 6 | 242 | 0.0 | 3.2 | 0.00 | 1.65 | 0.00 | 94 | 1007.0 |
| 20260507050034 | 6 | 9 | 1.6 | 4.8 | 0.00 | 1.65 | 0.00 | 93 | 1006.9 |
| 20260507044518 | 6 | 298 | 0.0 | 3.2 | 0.00 | 1.65 | 0.00 | 94 | 1006.8 |
| 20260507043004 | 7 | 298 | 1.6 | 3.2 | 0.00 | 1.65 | 0.00 | 94 | 1006.8 |
| 20260507041511 | 7 | 289 | 0.0 | 3.2 | 0.00 | 1.65 | 0.00 | 94 | 1007.1 |
| 20260507040013 | 7 | 311 | 0.0 | 3.2 | 0.00 | 1.65 | 0.00 | 94 | 1006.9 |
| 20260507034515 | 7 | 289 | 0.0 | 3.2 | 0.03 | 1.65 | 1.65 | 93 | 1006.7 |
| 20260507033020 | 7 | 260 | 0.0 | 3.2 | 0.05 | 1.65 | 1.65 | 92 | 1006.9 |
| 20260507031504 | 7 | 295 | 3.2 | 9.7 | 0.10 | 1.65 | 1.65 | 92 | 1007.0 |
| 20260507030013 | 7 | 248 | 1.6 | 6.4 | 0.10 | 1.65 | 1.65 | 92 | 1006.9 |
| 20260507024516 | 7 | 319 | 1.6 | 3.2 | 0.10 | 1.63 | 1.63 | 93 | 1007.0 |
| 20260507023016 | 7 | 285 | 0.0 | 4.8 | 0.10 | 1.60 | 1.60 | 93 | 1007.0 |
| 20260507021529 | 8 | 268 | 1.6 | 6.4 | 0.10 | 1.55 | 1.55 | 93 | 1007.1 |
| 20260507020009 | 8 | 183 | 0.0 | 4.8 | 0.13 | 1.55 | 1.55 | 92 | 1007.1 |
| 20260507014512 | 8 | 253 | 1.6 | 6.4 | 0.10 | 1.52 | 1.52 | 92 | 1006.9 |
| 20260507013012 | 9 | 292 | 4.8 | 11.3 | 0.10 | 1.47 | 1.47 | 92 | 1006.5 |
| 20260507011523 | 9 | 240 | 1.6 | 9.7 | 0.05 | 1.45 | 1.45 | 93 | 1006.5 |
| 20260507010032 | 9 | 317 | 1.6 | 8.0 | 0.03 | 1.42 | 1.42 | 92 | 1005.9 |
| 20260507004507 | 10 | 315 | 1.6 | 16.1 | 0.03 | 1.42 | 1.42 | 92 | 1005.7 |
| 20260507003015 | 10 | 302 | 3.2 | 12.9 | 0.05 | 1.40 | 1.40 | 92 | 1005.5 |
| 20260507001516 | 11 | 305 | 0.0 | 3.2 | 0.20 | 1.40 | 1.40 | 92 | 1005.1 |
| 20260507000026 | 11 | 232 | 1.6 | 12.9 | 0.33 | 1.40 | 1.40 | 92 | 1004.9 |
| 20260506234524 | 11 | 265 | 3.2 | 9.7 | 0.33 | 1.40 | 1.40 | 92 | 1004.5 |
| 20260506233007 | 12 | 334 | 3.2 | 12.9 | 0.30 | 1.32 | 1.32 | 90 | 1004.2 |
| 20260506231518 | 14 | 269 | 0.0 | 3.2 | 0.20 | 1.19 | 1.19 | 94 | 1003.8 |
| 20260506230022 | 14 | 254 | 0.0 | 3.2 | 0.10 | 1.07 | 1.07 | 94 | 1003.5 |
| 20260506224524 | 14 | 123 | 1.6 | 8.0 | 0.13 | 1.07 | 1.07 | 94 | 1003.7 |
| 20260506223025 | 14 | 223 | 1.6 | 3.2 | 0.10 | 1.04 | 1.04 | 94 | 1003.8 |
| 20260506221512 | 14 | 209 | 0.0 | 4.8 | 0.05 | 0.99 | 0.99 | 94 | 1003.7 |
| 20260506220018 | 14 | 240 | 0.0 | 9.7 | 0.03 | 0.97 | 0.97 | 93 | 1003.6 |
| 20260506214523 | 14 | 130 | 1.6 | 6.4 | 0.03 | 0.94 | 0.94 | 93 | 1003.5 |
| 20260506213027 | 15 | 248 | 3.2 | 11.3 | 0.05 | 0.97 | 0.94 | 93 | 1003.5 |
| 20260506211539 | 15 | 63 | 1.6 | 9.7 | 0.13 | 0.97 | 0.94 | 94 | 1003.5 |
| 20260506210030 | 15 | 161 | 1.6 | 8.0 | 0.15 | 0.97 | 0.94 | 94 | 1003.6 |
| 20260506204523 | 15 | 128 | 1.6 | 6.4 | 0.13 | 0.94 | 0.91 | 94 | 1003.7 |
| 20260506203023 | 15 | 191 | 1.6 | 8.0 | 0.10 | 0.91 | 0.89 | 94 | 1003.9 |
| 20260506201510 | 15 | 350 | 1.6 | 11.3 | 0.03 | 0.84 | 0.81 | 93 | 1003.9 |
| 20260506200014 | 15 | 164 | 3.2 | 6.4 | 0.08 | 0.81 | 0.79 | 93 | 1004.0 |
| 20260506194518 | 15 | 255 | 1.6 | 6.4 | 0.15 | 0.81 | 0.79 | 93 | 1004.1 |
| 20260506193036 | 15 | 169 | 1.6 | 9.7 | 0.25 | 0.81 | 0.79 | 94 | 1004.4 |
| 20260506191526 | 15 | 237 | 0.0 | 3.2 | 0.28 | 0.81 | 0.79 | 94 | 1004.6 |
| 20260506190013 | 15 | 171 | 0.0 | 4.8 | 0.25 | 0.74 | 0.71 | 94 | 1004.8 |
| 20260506184516 | 15 | 229 | 0.0 | 8.0 | 0.23 | 0.66 | 0.64 | 93 | 1004.7 |
| 20260506183022 | 15 | 157 | 3.2 | 6.4 | 0.20 | 0.56 | 0.53 | 93 | 1004.9 |
| 20260506181536 | 15 | 277 | 3.2 | 11.3 | 0.28 | 0.53 | 0.51 | 93 | 1005.1 |
| 20260506180010 | 15 | 210 | 1.6 | 9.7 | 0.33 | 0.48 | 0.46 | 93 | 1005.6 |
| 20260506174515 | 15 | 195 | 0.0 | 9.7 | 0.33 | 0.43 | 0.41 | 93 | 1005.9 |
| 20260506173024 | 15 | 131 | 3.2 | 12.9 | 0.30 | 0.36 | 0.33 | 92 | 1005.8 |
| 20260506171528 | 15 | 205 | 4.8 | 14.5 | 0.23 | 0.25 | 0.23 | 91 | 1005.9 |
| 20260506170026 | 15 | 181 | 0.0 | 4.8 | 0.13 | 0.15 | 0.13 | 91 | 1005.9 |
| 20260506164511 | 15 | 268 | 1.6 | 4.8 | 0.08 | 0.10 | 0.08 | 88 | 1006.1 |
| 20260506163024 | 16 | 202 | 1.6 | 8.0 | 0.03 | 0.05 | 0.03 | 85 | 1006.2 |
| 20260506161521 | 16 | 292 | 1.6 | 8.0 | 0.00 | 0.03 | 0.00 | 85 | 1006.2 |
| 20260506160024 | 16 | 178 | 1.6 | 9.7 | 0.00 | 0.03 | 0.00 | 84 | 1006.5 |
| 20260506154529 | 16 | 236 | 1.6 | 6.4 | 0.00 | 0.03 | 0.00 | 83 | 1006.8 |
| 20260506153021 | 16 | 270 | 3.2 | 12.9 | 0.00 | 0.03 | 0.00 | 83 | 1007.1 |
| 20260506151519 | 16 | 244 | 3.2 | 12.9 | 0.00 | 0.03 | 0.00 | 80 | 1007.3 |
| 20260506150022 | 16 | 187 | 3.2 | 11.3 | 0.00 | 0.03 | 0.00 | 80 | 1007.4 |
| 20260506144526 | 16 | 252 | 1.6 | 11.3 | 0.00 | 0.03 | 0.00 | 80 | 1007.2 |
| 20260506143029 | 16 | 289 | 1.6 | 11.3 | 0.00 | 0.03 | 0.00 | 80 | 1007.0 |
| 20260506141517 | 15 | 254 | 4.8 | 14.5 | 0.00 | 0.03 | 0.00 | 81 | 1007.2 |
| 20260506140023 | 16 | 246 | 3.2 | 16.1 | 0.00 | 0.03 | 0.00 | 80 | 1007.2 |
| 20260506134525 | 15 | 236 | 3.2 | 9.7 | 0.00 | 0.03 | 0.00 | 81 | 1007.2 |
| 20260506133025 | 15 | 223 | 0.0 | 12.9 | 0.00 | 0.03 | 0.00 | 82 | 1007.3 |
| 20260506131528 | 15 | 203 | 0.0 | 9.7 | 0.00 | 0.03 | 0.00 | 83 | 1007.6 |
| 20260506130022 | 15 | 159 | 0.0 | 11.3 | 0.00 | 0.03 | 0.00 | 83 | 1007.9 |
| 20260506124522 | 14 | 259 | 6.4 | 11.3 | 0.00 | 0.03 | 0.00 | 84 | 1007.7 |
| 20260506123026 | 14 | 240 | 4.8 | 14.5 | 0.00 | 0.03 | 0.00 | 84 | 1007.4 |
| 20260506121525 | 14 | 92 | 1.6 | 9.7 | 0.00 | 0.03 | 0.00 | 84 | 1007.2 |
| 20260506120023 | 13 | 360 | 1.6 | 12.9 | 0.00 | 0.03 | 0.00 | 85 | 1007.5 |
| 20260506114524 | 13 | 256 | 1.6 | 6.4 | 0.00 | 0.03 | 0.00 | 86 | 1007.6 |
| 20260506113006 | 13 | 225 | 3.2 | 8.0 | 0.00 | 0.03 | 0.00 | 86 | 1007.6 |
| 20260506111511 | 13 | 205 | 3.2 | 11.3 | 0.00 | 0.03 | 0.00 | 88 | 1007.7 |